Time,TemperatureF,DewpointF,PressureIn,WindDirection,WindDirectionDegrees,WindSpeedMPH,WindSpeedGustMPH,Humidity,HourlyPrecipIn,Conditions,Clouds,dailyrainin,SoftwareType,DateUTC
2013-08-10 00:00:00,61.7,61.1,29.76,ESE,113,1.0,1.0,98,0.00,,,0.00,Wunderground v.1.15,2013-08-10 04:00:00,
2013-08-10 00:05:00,61.8,61.2,29.76,ESE,113,0.0,1.0,98,0.00,,,0.00,Wunderground v.1.15,2013-08-10 04:05:00,
2013-08-10 00:10:00,61.8,61.2,29.76,ESE,113,0.0,0.0,98,0.00,,,0.00,Wunderground v.1.15,2013-08-10 04:10:00,
2013-08-10 00:15:00,61.6,61.0,29.76,ESE,113,0.0,0.0,98,0.00,,,0.00,Wunderground v.1.15,2013-08-10 04:15:00,
2013-08-10 00:20:00,61.5,60.9,29.76,ESE,113,0.0,0.0,98,0.00,,,0.00,Wunderground v.1.15,2013-08-10 04:20:00,
2013-08-10 00:25:00,61.4,60.8,29.76,ESE,113,0.0,0.0,98,0.00,,,0.00,Wunderground v.1.15,2013-08-10 04:25:00,
2013-08-10 00:30:00,61.2,60.6,29.76,ESE,113,0.0,0.0,98,0.00,,,0.00,Wunderground v.1.15,2013-08-10 04:30:00,
2013-08-10 00:35:00,61.1,60.5,29.76,ESE,113,0.0,0.0,98,0.00,,,0.00,Wunderground v.1.15,2013-08-10 04:35:00,
2013-08-10 00:40:00,61.1,60.5,29.76,ESE,113,0.0,1.0,98,0.00,,,0.00,Wunderground v.1.15,2013-08-10 04:40:00,
2013-08-10 00:45:00,61.2,60.6,29.76,ESE,113,1.0,1.0,98,0.00,,,0.00,Wunderground v.1.15,2013-08-10 04:45:00,
2013-08-10 00:50:00,61.1,60.5,29.76,ESE,113,0.0,0.0,98,0.00,,,0.00,Wunderground v.1.15,2013-08-10 04:50:00,
2013-08-10 01:00:00,61.1,60.5,29.76,ESE,113,0.0,0.0,98,0.00,,,0.00,Wunderground v.1.15,2013-08-10 05:00:00,
2013-08-10 01:05:00,61.2,60.6,29.76,NNW,337,0.0,2.0,98,0.00,,,0.00,Wunderground v.1.15,2013-08-10 05:05:00,
2013-08-10 01:20:00,63.6,63.3,29.76,SW,231,1.0,1.0,99,0.00,,,0.00,Wunderground v.1.15,2013-08-10 05:20:00,
2013-08-10 01:25:00,63.6,63.3,29.76,North,355,1.0,3.0,99,0.00,,,0.00,Wunderground v.1.15,2013-08-10 05:25:00,
2013-08-10 01:35:00,63.5,63.2,29.76,WSW,237,1.0,2.0,99,0.00,,,0.00,Wunderground v.1.15,2013-08-10 05:35:00,
2013-08-10 01:40:00,63.4,62.8,29.76,WSW,237,1.0,1.0,98,0.00,,,0.00,Wunderground v.1.15,2013-08-10 05:40:00,
2013-08-10 01:45:00,63.5,62.9,29.76,WSW,237,1.0,1.0,98,0.00,,,0.00,Wunderground v.1.15,2013-08-10 05:45:00,
2013-08-10 01:50:00,64.0,63.7,29.76,SW,236,1.0,2.0,99,0.00,,,0.00,Wunderground v.1.15,2013-08-10 05:50:00,
2013-08-10 01:55:00,64.3,64.0,29.76,SW,219,1.0,3.0,99,0.00,,,0.00,Wunderground v.1.15,2013-08-10 05:55:00,
2013-08-10 02:00:00,64.6,64.3,29.76,WNW,298,1.0,1.0,99,0.00,,,0.00,Wunderground v.1.15,2013-08-10 06:00:00,
2013-08-10 02:05:00,64.8,64.5,29.76,NW,313,2.0,2.0,99,0.00,,,0.00,Wunderground v.1.15,2013-08-10 06:05:00,
2013-08-10 02:10:00,64.9,64.6,29.76,SW,217,2.0,2.0,99,0.00,,,0.00,Wunderground v.1.15,2013-08-10 06:10:00,
2013-08-10 02:15:00,64.8,64.2,29.77,West,266,2.0,2.0,98,0.00,,,0.00,Wunderground v.1.15,2013-08-10 06:15:00,
2013-08-10 02:20:00,64.7,64.1,29.77,NNW,347,2.0,3.0,98,0.00,,,0.00,Wunderground v.1.15,2013-08-10 06:20:00,
2013-08-10 02:25:00,64.6,64.0,29.77,West,268,2.0,3.0,98,0.00,,,0.00,Wunderground v.1.15,2013-08-10 06:25:00,
2013-08-10 02:30:00,64.5,63.6,29.77,West,268,1.0,1.0,97,0.00,,,0.00,Wunderground v.1.15,2013-08-10 06:30:00,
2013-08-10 02:35:00,64.3,63.4,29.77,West,271,1.0,3.0,97,0.00,,,0.00,Wunderground v.1.15,2013-08-10 06:35:00,
2013-08-10 02:40:00,64.2,63.3,29.77,SW,236,1.0,1.0,97,0.00,,,0.00,Wunderground v.1.15,2013-08-10 06:40:00,
2013-08-10 02:45:00,64.0,62.8,29.78,SW,236,1.0,1.0,96,0.00,,,0.00,Wunderground v.1.15,2013-08-10 06:45:00,
2013-08-10 02:50:00,63.7,62.8,29.78,SW,236,0.0,0.0,97,0.00,,,0.00,Wunderground v.1.15,2013-08-10 06:50:00,
2013-08-10 02:55:00,63.5,62.3,29.78,SW,236,0.0,0.0,96,0.00,,,0.00,Wunderground v.1.15,2013-08-10 06:55:00,
2013-08-10 03:00:00,63.1,62.2,29.77,SW,236,0.0,0.0,97,0.00,,,0.00,Wunderground v.1.15,2013-08-10 07:00:00,
2013-08-10 03:06:00,63.0,62.1,29.78,SW,236,0.0,1.0,97,0.00,,,0.00,Wunderground v.1.15,2013-08-10 07:06:00,
2013-08-10 03:10:00,62.9,62.0,29.78,SW,236,1.0,1.0,97,0.00,,,0.00,Wunderground v.1.15,2013-08-10 07:10:00,
2013-08-10 03:15:00,62.8,61.9,29.78,SW,236,1.0,1.0,97,0.00,,,0.00,Wunderground v.1.15,2013-08-10 07:15:00,
2013-08-10 03:25:00,63.1,62.2,29.78,SW,214,2.0,2.0,97,0.00,,,0.00,Wunderground v.1.15,2013-08-10 07:25:00,
2013-08-10 03:35:00,63.9,62.7,29.78,SW,227,4.0,4.0,96,0.00,,,0.00,Wunderground v.1.15,2013-08-10 07:35:00,
2013-08-10 03:45:00,64.1,62.3,29.78,WSW,237,4.0,4.0,94,0.00,,,0.00,Wunderground v.1.15,2013-08-10 07:45:00,
2013-08-10 03:50:00,64.3,62.2,29.79,WSW,258,4.0,7.0,93,0.00,,,0.00,Wunderground v.1.15,2013-08-10 07:50:00,
2013-08-10 03:55:00,64.3,61.9,29.79,SW,223,4.0,4.0,92,0.00,,,0.00,Wunderground v.1.15,2013-08-10 07:55:00,
2013-08-10 04:05:00,64.0,61.3,29.79,SW,235,3.0,3.0,91,0.00,,,0.00,Wunderground v.1.15,2013-08-10 08:05:00,
2013-08-10 04:10:00,63.8,61.1,29.79,SW,226,3.0,4.0,91,0.00,,,0.00,Wunderground v.1.15,2013-08-10 08:10:00,
2013-08-10 04:15:00,63.7,61.0,29.80,WNW,300,3.0,4.0,91,0.00,,,0.00,Wunderground v.1.15,2013-08-10 08:15:00,
2013-08-10 04:20:00,63.4,60.7,29.80,West,267,3.0,3.0,91,0.00,,,0.00,Wunderground v.1.15,2013-08-10 08:20:00,
2013-08-10 04:25:00,63.1,60.4,29.80,SW,220,2.0,3.0,91,0.00,,,0.00,Wunderground v.1.15,2013-08-10 08:25:00,
2013-08-10 04:31:00,62.9,60.2,29.80,SW,232,2.0,3.0,91,0.00,,,0.00,Wunderground v.1.15,2013-08-10 08:31:00,
2013-08-10 04:35:00,62.6,59.9,29.80,SW,232,2.0,3.0,91,0.00,,,0.00,Wunderground v.1.15,2013-08-10 08:35:00,
2013-08-10 04:40:00,62.3,59.9,29.80,SSW,213,1.0,3.0,92,0.00,,,0.00,Wunderground v.1.15,2013-08-10 08:40:00,
2013-08-10 04:45:00,61.9,59.5,29.80,SSW,213,1.0,1.0,92,0.00,,,0.00,Wunderground v.1.15,2013-08-10 08:45:00,
2013-08-10 04:50:00,61.5,59.2,29.80,SSW,213,0.0,1.0,92,0.00,,,0.00,Wunderground v.1.15,2013-08-10 08:50:00,
2013-08-10 04:55:00,61.1,59.1,29.81,NE,53,0.0,0.0,93,0.00,,,0.00,Wunderground v.1.15,2013-08-10 08:55:00,
2013-08-10 05:00:00,60.6,58.6,29.81,NE,53,0.0,0.0,93,0.00,,,0.00,Wunderground v.1.15,2013-08-10 09:00:00,
2013-08-10 05:10:00,59.8,58.1,29.81,NE,53,0.0,0.0,94,0.00,,,0.00,Wunderground v.1.15,2013-08-10 09:10:00,
2013-08-10 05:15:00,59.4,57.7,29.81,NE,53,0.0,0.0,94,0.00,,,0.00,Wunderground v.1.15,2013-08-10 09:15:00,
2013-08-10 05:20:00,59.1,57.4,29.81,NE,53,0.0,0.0,94,0.00,,,0.00,Wunderground v.1.15,2013-08-10 09:20:00,
2013-08-10 05:25:00,58.8,57.4,29.81,NE,53,0.0,0.0,95,0.00,,,0.00,Wunderground v.1.15,2013-08-10 09:25:00,
2013-08-10 05:30:00,58.5,57.1,29.82,NE,53,0.0,1.0,95,0.00,,,0.00,Wunderground v.1.15,2013-08-10 09:30:00,
2013-08-10 05:35:00,58.2,56.8,29.82,NE,53,0.0,1.0,95,0.00,,,0.00,Wunderground v.1.15,2013-08-10 09:35:00,
2013-08-10 05:45:00,57.9,56.8,29.82,SSW,199,0.0,0.0,96,0.00,,,0.00,Wunderground v.1.15,2013-08-10 09:45:00,
2013-08-10 05:50:00,57.6,56.5,29.82,SSW,199,0.0,0.0,96,0.00,,,0.00,Wunderground v.1.15,2013-08-10 09:50:00,
2013-08-10 06:00:00,57.0,55.9,29.82,WSW,256,0.0,1.0,96,0.00,,,0.00,Wunderground v.1.15,2013-08-10 10:00:00,
2013-08-10 06:10:00,56.8,55.7,29.83,WSW,256,0.0,0.0,96,0.00,,,0.00,Wunderground v.1.15,2013-08-10 10:10:00,
2013-08-10 06:15:00,56.6,55.5,29.83,WSW,256,0.0,0.0,96,0.00,,,0.00,Wunderground v.1.15,2013-08-10 10:15:00,
2013-08-10 06:20:00,56.5,55.4,29.83,WSW,256,0.0,0.0,96,0.00,,,0.00,Wunderground v.1.15,2013-08-10 10:20:00,
2013-08-10 06:25:00,56.5,55.7,29.82,WSW,256,0.0,0.0,97,0.00,,,0.00,Wunderground v.1.15,2013-08-10 10:25:00,
2013-08-10 06:30:00,56.8,56.0,29.82,WSW,256,0.0,0.0,97,0.00,,,0.00,Wunderground v.1.15,2013-08-10 10:30:00,
2013-08-10 06:35:00,56.8,56.0,29.82,WSW,256,0.0,0.0,97,0.00,,,0.00,Wunderground v.1.15,2013-08-10 10:35:00,
2013-08-10 06:40:00,57.0,56.2,29.83,WSW,256,0.0,0.0,97,0.00,,,0.00,Wunderground v.1.15,2013-08-10 10:40:00,
2013-08-10 06:45:00,57.3,56.7,29.83,WSW,256,0.0,0.0,98,0.00,,,0.00,Wunderground v.1.15,2013-08-10 10:45:00,
2013-08-10 06:50:00,57.5,56.9,29.83,WSW,256,0.0,0.0,98,0.00,,,0.00,Wunderground v.1.15,2013-08-10 10:50:00,
2013-08-10 06:55:00,58.1,57.3,29.83,WNW,303,2.0,6.0,97,0.00,,,0.00,Wunderground v.1.15,2013-08-10 10:55:00,
2013-08-10 07:00:00,58.8,57.4,29.83,WSW,240,3.0,9.0,95,0.00,,,0.00,Wunderground v.1.15,2013-08-10 11:00:00,
2013-08-10 07:05:00,59.8,57.5,29.83,WSW,248,3.0,9.0,92,0.00,,,0.00,Wunderground v.1.15,2013-08-10 11:05:00,
2013-08-10 07:15:00,61.0,57.4,29.83,West,275,2.0,2.0,88,0.00,,,0.00,Wunderground v.1.15,2013-08-10 11:15:00,
2013-08-10 07:20:00,61.3,57.4,29.83,WSW,257,3.0,7.0,87,0.00,,,0.00,Wunderground v.1.15,2013-08-10 11:20:00,
2013-08-10 07:25:00,61.6,57.4,29.84,WSW,248,4.0,7.0,86,0.00,,,0.00,Wunderground v.1.15,2013-08-10 11:25:00,
2013-08-10 07:30:00,61.7,57.5,29.84,West,273,5.0,5.0,86,0.00,,,0.00,Wunderground v.1.15,2013-08-10 11:30:00,
2013-08-10 07:35:00,61.7,57.5,29.84,SW,231,5.0,8.0,86,0.00,,,0.00,Wunderground v.1.15,2013-08-10 11:35:00,
2013-08-10 07:40:00,61.7,57.5,29.84,SW,236,5.0,8.0,86,0.00,,,0.00,Wunderground v.1.15,2013-08-10 11:40:00,
2013-08-10 07:45:00,61.8,57.2,29.84,WNW,286,5.0,8.0,85,0.00,,,0.00,Wunderground v.1.15,2013-08-10 11:45:00,
2013-08-10 07:50:00,62.0,57.1,29.84,SW,226,5.0,5.0,84,0.00,,,0.00,Wunderground v.1.15,2013-08-10 11:50:00,
2013-08-10 08:00:00,62.5,56.9,29.84,SW,231,5.0,5.0,82,0.00,,,0.00,Wunderground v.1.15,2013-08-10 12:00:00,
2013-08-10 08:05:00,62.7,56.4,29.85,NW,308,5.0,7.0,80,0.00,,,0.00,Wunderground v.1.15,2013-08-10 12:05:00,
2013-08-10 08:10:00,62.7,56.8,29.85,NW,313,4.0,4.0,81,0.00,,,0.00,Wunderground v.1.15,2013-08-10 12:10:00,
2013-08-10 08:15:00,62.7,56.4,29.85,SW,236,5.0,5.0,80,0.00,,,0.00,Wunderground v.1.15,2013-08-10 12:15:00,
2013-08-10 08:20:00,62.4,55.8,29.85,WSW,257,5.0,5.0,79,0.00,,,0.00,Wunderground v.1.15,2013-08-10 12:20:00,
2013-08-10 08:25:00,62.3,55.7,29.85,SW,215,4.0,5.0,79,0.00,,,0.00,Wunderground v.1.15,2013-08-10 12:25:00,
2013-08-10 08:30:00,62.5,55.9,29.85,WSW,248,3.0,6.0,79,0.00,,,0.00,Wunderground v.1.15,2013-08-10 12:30:00,
2013-08-10 08:35:00,62.5,55.5,29.85,NNW,344,4.0,6.0,78,0.00,,,0.00,Wunderground v.1.15,2013-08-10 12:35:00,
2013-08-10 08:40:00,62.0,54.7,29.86,North,5,5.0,5.0,77,0.00,,,0.00,Wunderground v.1.15,2013-08-10 12:40:00,
2013-08-10 08:45:00,62.0,54.3,29.86,NW,311,4.0,8.0,76,0.00,,,0.00,Wunderground v.1.15,2013-08-10 12:45:00,
2013-08-10 08:50:00,62.3,55.0,29.86,South,188,4.0,4.0,77,0.00,,,0.00,Wunderground v.1.15,2013-08-10 12:50:00,
2013-08-10 08:55:00,62.5,54.8,29.86,North,5,2.0,4.0,76,0.00,,,0.00,Wunderground v.1.15,2013-08-10 12:55:00,
2013-08-10 09:10:00,62.8,55.8,29.86,North,5,2.0,2.0,78,0.00,,,0.00,Wunderground v.1.15,2013-08-10 13:10:00,
2013-08-10 09:15:00,63.4,54.6,29.86,North,5,1.0,2.0,73,0.00,,,0.00,Wunderground v.1.15,2013-08-10 13:15:00,
2013-08-10 09:20:00,63.7,53.3,29.87,SSW,200,3.0,5.0,69,0.00,,,0.00,Wunderground v.1.15,2013-08-10 13:20:00,
2013-08-10 09:25:00,63.4,53.4,29.86,SSW,207,5.0,7.0,70,0.00,,,0.00,Wunderground v.1.15,2013-08-10 13:25:00,
2013-08-10 09:35:00,63.6,52.8,29.87,NW,311,6.0,9.0,68,0.00,,,0.00,Wunderground v.1.15,2013-08-10 13:35:00,
2013-08-10 09:40:00,63.6,52.8,29.87,West,276,5.0,8.0,68,0.00,,,0.00,Wunderground v.1.15,2013-08-10 13:40:00,
2013-08-10 09:45:00,63.5,53.9,29.87,SSE,155,5.0,8.0,71,0.00,,,0.00,Wunderground v.1.15,2013-08-10 13:45:00,
2013-08-10 09:55:00,64.2,53.0,29.87,SW,219,5.0,7.0,67,0.00,,,0.00,Wunderground v.1.15,2013-08-10 13:55:00,
2013-08-10 10:00:00,64.3,54.3,29.88,West,274,7.0,9.0,70,0.00,,,0.00,Wunderground v.1.15,2013-08-10 14:00:00,
2013-08-10 10:05:00,64.4,52.0,29.88,SW,233,6.0,10.0,64,0.00,,,0.00,Wunderground v.1.15,2013-08-10 14:05:00,
2013-08-10 10:15:00,63.8,51.8,29.88,SW,229,7.0,11.0,65,0.00,,,0.00,Wunderground v.1.15,2013-08-10 14:15:00,
2013-08-10 10:25:00,64.3,53.1,29.88,NW,320,6.0,7.0,67,0.00,,,0.00,Wunderground v.1.15,2013-08-10 14:25:00,
2013-08-10 10:30:00,64.9,53.3,29.88,WNW,294,4.0,4.0,66,0.00,,,0.00,Wunderground v.1.15,2013-08-10 14:30:00,
2013-08-10 10:35:00,65.1,54.3,29.88,West,268,4.0,5.0,68,0.00,,,0.00,Wunderground v.1.15,2013-08-10 14:35:00,
2013-08-10 10:40:00,64.5,52.5,29.88,North,360,6.0,6.0,65,0.00,,,0.00,Wunderground v.1.15,2013-08-10 14:40:00,
2013-08-10 10:45:00,64.2,52.6,29.88,SW,236,4.0,6.0,66,0.00,,,0.00,Wunderground v.1.15,2013-08-10 14:45:00,
2013-08-10 10:50:00,64.0,52.4,29.88,WSW,240,3.0,9.0,66,0.00,,,0.00,Wunderground v.1.15,2013-08-10 14:50:00,
2013-08-10 10:55:00,64.5,53.3,29.88,West,259,5.0,9.0,67,0.00,,,0.00,Wunderground v.1.15,2013-08-10 14:55:00,
2013-08-10 11:00:00,64.7,53.1,29.88,North,350,5.0,5.0,66,0.00,,,0.00,Wunderground v.1.15,2013-08-10 15:00:00,
2013-08-10 11:10:00,64.5,52.9,29.89,SSW,209,6.0,6.0,66,0.00,,,0.00,Wunderground v.1.15,2013-08-10 15:10:00,
2013-08-10 11:15:00,64.3,53.1,29.89,SSW,212,7.0,10.0,67,0.00,,,0.00,Wunderground v.1.15,2013-08-10 15:15:00,
2013-08-10 11:20:00,64.5,53.3,29.89,WSW,253,8.0,8.0,67,0.00,,,0.00,Wunderground v.1.15,2013-08-10 15:20:00,
2013-08-10 11:25:00,64.8,53.6,29.89,WSW,237,7.0,8.0,67,0.00,,,0.00,Wunderground v.1.15,2013-08-10 15:25:00,
2013-08-10 11:35:00,65.1,53.9,29.89,West,272,6.0,6.0,67,0.00,,,0.00,Wunderground v.1.15,2013-08-10 15:35:00,
2013-08-10 11:40:00,64.7,53.9,29.89,West,276,6.0,6.0,68,0.00,,,0.00,Wunderground v.1.15,2013-08-10 15:40:00,
2013-08-10 11:45:00,65.0,54.2,29.89,SW,232,5.0,6.0,68,0.00,,,0.00,Wunderground v.1.15,2013-08-10 15:45:00,
2013-08-10 11:50:00,65.4,54.2,29.89,SW,224,5.0,5.0,67,0.00,,,0.00,Wunderground v.1.15,2013-08-10 15:50:00,
2013-08-10 11:55:00,65.7,54.4,29.89,SW,225,5.0,5.0,67,0.00,,,0.00,Wunderground v.1.15,2013-08-10 15:55:00,
2013-08-10 12:00:00,65.9,55.0,29.89,West,266,6.0,8.0,68,0.00,,,0.00,Wunderground v.1.15,2013-08-10 16:00:00,
2013-08-10 12:05:00,65.9,55.0,29.89,NNW,338,6.0,8.0,68,0.00,,,0.00,Wunderground v.1.15,2013-08-10 16:05:00,
2013-08-10 12:10:00,66.4,53.8,29.88,NNE,17,5.0,8.0,64,0.00,,,0.00,Wunderground v.1.15,2013-08-10 16:10:00,
2013-08-10 12:15:00,66.3,54.2,29.89,West,277,4.0,8.0,65,0.00,,,0.00,Wunderground v.1.15,2013-08-10 16:15:00,
2013-08-10 12:20:00,66.7,54.1,29.89,SSW,211,4.0,4.0,64,0.00,,,0.00,Wunderground v.1.15,2013-08-10 16:20:00,
2013-08-10 12:25:00,66.5,52.6,29.89,WNW,294,5.0,5.0,61,0.00,,,0.00,Wunderground v.1.15,2013-08-10 16:25:00,
2013-08-10 12:30:00,66.8,53.8,29.88,WSW,241,5.0,5.0,63,0.00,,,0.00,Wunderground v.1.15,2013-08-10 16:30:00,
2013-08-10 12:35:00,66.8,52.9,29.89,SSW,205,4.0,11.0,61,0.00,,,0.00,Wunderground v.1.15,2013-08-10 16:35:00,
2013-08-10 12:40:00,66.6,53.6,29.89,SW,232,5.0,14.0,63,0.00,,,0.00,Wunderground v.1.15,2013-08-10 16:40:00,
2013-08-10 12:45:00,66.6,52.7,29.89,SW,224,7.0,14.0,61,0.00,,,0.00,Wunderground v.1.15,2013-08-10 16:45:00,
2013-08-10 12:50:00,66.4,54.7,29.89,SSW,198,7.0,7.0,66,0.00,,,0.00,Wunderground v.1.15,2013-08-10 16:50:00,
2013-08-10 12:55:00,66.9,53.0,29.89,South,171,5.0,7.0,61,0.00,,,0.00,Wunderground v.1.15,2013-08-10 16:55:00,
2013-08-10 13:00:00,67.1,53.2,29.90,WSW,240,6.0,11.0,61,0.00,,,0.00,Wunderground v.1.15,2013-08-10 17:00:00,
2013-08-10 13:10:00,67.3,52.9,29.90,WNW,290,6.0,6.0,60,0.00,,,0.00,Wunderground v.1.15,2013-08-10 17:10:00,
2013-08-10 13:15:00,67.1,52.7,29.90,WNW,286,4.0,7.0,60,0.00,,,0.00,Wunderground v.1.15,2013-08-10 17:15:00,
2013-08-10 13:20:00,67.2,53.3,29.90,WSW,244,4.0,6.0,61,0.00,,,0.00,Wunderground v.1.15,2013-08-10 17:20:00,
2013-08-10 13:25:00,67.2,52.8,29.90,WNW,290,4.0,6.0,60,0.00,,,0.00,Wunderground v.1.15,2013-08-10 17:25:00,
2013-08-10 13:30:00,67.1,53.6,29.90,NW,323,3.0,3.0,62,0.00,,,0.00,Wunderground v.1.15,2013-08-10 17:30:00,
2013-08-10 13:35:00,66.9,52.1,29.91,West,268,4.0,4.0,59,0.00,,,0.00,Wunderground v.1.15,2013-08-10 17:35:00,
2013-08-10 13:45:00,66.5,53.1,29.90,WNW,301,4.0,5.0,62,0.00,,,0.00,Wunderground v.1.15,2013-08-10 17:45:00,
2013-08-10 13:50:00,66.1,52.3,29.90,North,355,2.0,6.0,61,0.00,,,0.00,Wunderground v.1.15,2013-08-10 17:50:00,
2013-08-10 14:00:00,65.2,51.8,29.91,West,273,5.0,5.0,62,0.00,,,0.00,Wunderground v.1.15,2013-08-10 18:00:00,
2013-08-10 14:05:00,65.3,51.1,29.91,NNW,346,4.0,6.0,60,0.00,,,0.00,Wunderground v.1.15,2013-08-10 18:05:00,
2013-08-10 14:10:00,65.2,51.8,29.91,SW,223,3.0,3.0,62,0.00,,,0.00,Wunderground v.1.15,2013-08-10 18:10:00,
2013-08-10 14:15:00,65.0,51.2,29.91,West,273,3.0,3.0,61,0.00,,,0.00,Wunderground v.1.15,2013-08-10 18:15:00,
2013-08-10 14:20:00,65.4,51.6,29.91,WNW,300,3.0,4.0,61,0.00,,,0.00,Wunderground v.1.15,2013-08-10 18:20:00,
2013-08-10 14:25:00,65.7,51.9,29.91,SE,127,4.0,4.0,61,0.00,,,0.00,Wunderground v.1.15,2013-08-10 18:25:00,
2013-08-10 14:30:00,65.9,52.5,29.91,NNE,29,4.0,4.0,62,0.00,,,0.00,Wunderground v.1.15,2013-08-10 18:30:00,
2013-08-10 14:35:00,66.5,51.7,29.91,NNE,23,3.0,4.0,59,0.00,,,0.00,Wunderground v.1.15,2013-08-10 18:35:00,
2013-08-10 14:40:00,66.3,51.5,29.91,WNW,287,3.0,3.0,59,0.00,,,0.00,Wunderground v.1.15,2013-08-10 18:40:00,
2013-08-10 14:45:00,66.0,51.3,29.91,North,5,3.0,4.0,59,0.00,,,0.00,Wunderground v.1.15,2013-08-10 18:45:00,
2013-08-10 14:50:00,65.8,51.5,29.91,NW,306,2.0,3.0,60,0.00,,,0.00,Wunderground v.1.15,2013-08-10 18:50:00,
2013-08-10 15:00:00,65.4,51.1,29.91,West,260,4.0,4.0,60,0.00,,,0.00,Wunderground v.1.15,2013-08-10 19:00:00,
2013-08-10 15:05:00,65.4,51.1,29.92,SW,220,3.0,4.0,60,0.00,,,0.00,Wunderground v.1.15,2013-08-10 19:05:00,
2013-08-10 15:10:00,65.8,52.0,29.92,West,267,3.0,8.0,61,0.00,,,0.00,Wunderground v.1.15,2013-08-10 19:10:00,
2013-08-10 15:15:00,66.6,51.8,29.92,West,280,4.0,8.0,59,0.00,,,0.00,Wunderground v.1.15,2013-08-10 19:15:00,
2013-08-10 15:20:00,66.8,52.9,29.92,South,180,5.0,5.0,61,0.00,,,0.00,Wunderground v.1.15,2013-08-10 19:20:00,
2013-08-10 15:25:00,66.7,51.9,29.92,WSW,252,4.0,6.0,59,0.00,,,0.00,Wunderground v.1.15,2013-08-10 19:25:00,
2013-08-10 15:30:00,66.4,52.1,29.92,WNW,302,5.0,5.0,60,0.00,,,0.00,Wunderground v.1.15,2013-08-10 19:30:00,
2013-08-10 15:35:00,66.9,51.6,29.92,West,277,6.0,6.0,58,0.00,,,0.00,Wunderground v.1.15,2013-08-10 19:35:00,
2013-08-10 15:40:00,67.7,50.9,29.92,NW,317,5.0,6.0,55,0.00,,,0.00,Wunderground v.1.15,2013-08-10 19:40:00,
2013-08-10 15:45:00,67.9,50.1,29.92,WSW,244,5.0,6.0,53,0.00,,,0.00,Wunderground v.1.15,2013-08-10 19:45:00,
2013-08-10 15:50:00,67.9,51.1,29.92,NW,305,6.0,6.0,55,0.00,,,0.00,Wunderground v.1.15,2013-08-10 19:50:00,
2013-08-10 15:55:00,67.8,51.0,29.92,WNW,300,6.0,6.0,55,0.00,,,0.00,Wunderground v.1.15,2013-08-10 19:55:00,
2013-08-10 16:00:00,67.2,51.4,29.92,West,265,4.0,7.0,57,0.00,,,0.00,Wunderground v.1.15,2013-08-10 20:00:00,
2013-08-10 16:05:00,66.6,51.8,29.92,WSW,243,3.0,7.0,59,0.00,,,0.00,Wunderground v.1.15,2013-08-10 20:05:00,
2013-08-10 16:10:00,66.0,51.7,29.93,WSW,240,4.0,4.0,60,0.00,,,0.00,Wunderground v.1.15,2013-08-10 20:10:00,
2013-08-10 16:15:00,66.5,51.7,29.93,WSW,239,3.0,4.0,59,0.00,,,0.00,Wunderground v.1.15,2013-08-10 20:15:00,
2013-08-10 16:20:00,67.4,51.6,29.93,SW,233,3.0,7.0,57,0.00,,,0.00,Wunderground v.1.15,2013-08-10 20:20:00,
2013-08-10 16:25:00,67.9,51.1,29.93,West,266,4.0,7.0,55,0.00,,,0.00,Wunderground v.1.15,2013-08-10 20:25:00,
2013-08-10 16:30:00,68.0,52.2,29.93,SW,219,4.0,9.0,57,0.00,,,0.00,Wunderground v.1.15,2013-08-10 20:30:00,
2013-08-10 16:40:00,67.6,49.9,29.94,WSW,248,6.0,6.0,53,0.00,,,0.00,Wunderground v.1.15,2013-08-10 20:40:00,
2013-08-10 16:50:00,67.3,49.6,29.94,West,268,6.0,6.0,53,0.00,,,0.00,Wunderground v.1.15,2013-08-10 20:50:00,
2013-08-10 16:55:00,67.4,51.2,29.94,NW,309,5.0,6.0,56,0.00,,,0.00,Wunderground v.1.15,2013-08-10 20:55:00,
2013-08-10 17:00:00,67.5,52.2,29.94,South,177,4.0,4.0,58,0.00,,,0.00,Wunderground v.1.15,2013-08-10 21:00:00,
2013-08-10 17:05:00,67.4,50.7,29.94,NNW,342,4.0,4.0,55,0.00,,,0.00,Wunderground v.1.15,2013-08-10 21:05:00,
2013-08-10 17:10:00,67.6,51.8,29.94,SSW,211,3.0,3.0,57,0.00,,,0.00,Wunderground v.1.15,2013-08-10 21:10:00,
2013-08-10 17:15:00,67.7,51.4,29.94,WSW,242,3.0,6.0,56,0.00,,,0.00,Wunderground v.1.15,2013-08-10 21:15:00,
2013-08-10 17:20:00,67.5,50.8,29.93,West,262,4.0,4.0,55,0.00,,,0.00,Wunderground v.1.15,2013-08-10 21:20:00,
2013-08-10 17:30:00,67.6,51.3,29.94,West,266,3.0,3.0,56,0.00,,,0.00,Wunderground v.1.15,2013-08-10 21:30:00,
2013-08-10 17:35:00,67.9,52.1,29.94,SSW,196,2.0,3.0,57,0.00,,,0.00,Wunderground v.1.15,2013-08-10 21:35:00,
2013-08-10 17:40:00,67.9,52.1,29.94,SW,221,2.0,4.0,57,0.00,,,0.00,Wunderground v.1.15,2013-08-10 21:40:00,
2013-08-10 17:45:00,67.8,51.0,29.94,WSW,250,3.0,8.0,55,0.00,,,0.00,Wunderground v.1.15,2013-08-10 21:45:00,
2013-08-10 17:50:00,67.0,51.3,29.95,WSW,248,4.0,7.0,57,0.00,,,0.00,Wunderground v.1.15,2013-08-10 21:50:00,
2013-08-10 17:55:00,66.7,51.0,29.94,WSW,258,4.0,7.0,57,0.00,,,0.00,Wunderground v.1.15,2013-08-10 21:55:00,
2013-08-10 18:00:00,66.7,51.9,29.95,NW,309,3.0,4.0,59,0.00,,,0.00,Wunderground v.1.15,2013-08-10 22:00:00,
2013-08-10 18:05:00,66.7,51.5,29.95,SSW,209,2.0,4.0,58,0.00,,,0.00,Wunderground v.1.15,2013-08-10 22:05:00,
2013-08-10 18:10:00,66.5,51.7,29.95,SW,223,3.0,3.0,59,0.00,,,0.00,Wunderground v.1.15,2013-08-10 22:10:00,
2013-08-10 18:15:00,66.3,51.5,29.95,WSW,258,3.0,3.0,59,0.00,,,0.00,Wunderground v.1.15,2013-08-10 22:15:00,
2013-08-10 18:20:00,65.9,50.7,29.95,West,272,3.0,3.0,58,0.00,,,0.00,Wunderground v.1.15,2013-08-10 22:20:00,
2013-08-10 18:25:00,65.4,51.6,29.95,West,263,3.0,3.0,61,0.00,,,0.00,Wunderground v.1.15,2013-08-10 22:25:00,
2013-08-10 18:30:00,65.1,51.8,29.95,SW,232,3.0,3.0,62,0.00,,,0.00,Wunderground v.1.15,2013-08-10 22:30:00,
2013-08-10 18:35:00,65.0,50.3,29.96,NW,314,4.0,7.0,59,0.00,,,0.00,Wunderground v.1.15,2013-08-10 22:35:00,
2013-08-10 18:40:00,65.1,52.2,29.96,WSW,240,3.0,3.0,63,0.00,,,0.00,Wunderground v.1.15,2013-08-10 22:40:00,
2013-08-10 18:45:00,65.1,50.9,29.96,NW,309,2.0,3.0,60,0.00,,,0.00,Wunderground v.1.15,2013-08-10 22:45:00,
2013-08-10 18:50:00,65.0,51.2,29.96,SW,222,2.0,2.0,61,0.00,,,0.00,Wunderground v.1.15,2013-08-10 22:50:00,
2013-08-10 18:55:00,65.1,51.3,29.96,WNW,296,2.0,2.0,61,0.00,,,0.00,Wunderground v.1.15,2013-08-10 22:55:00,
2013-08-10 19:00:00,64.9,51.1,29.96,SW,221,2.0,6.0,61,0.00,,,0.00,Wunderground v.1.15,2013-08-10 23:00:00,
2013-08-10 19:05:00,64.6,51.3,29.96,West,279,2.0,6.0,62,0.00,,,0.00,Wunderground v.1.15,2013-08-10 23:05:00,
2013-08-10 19:10:00,64.7,51.8,29.96,West,273,2.0,2.0,63,0.00,,,0.00,Wunderground v.1.15,2013-08-10 23:10:00,
2013-08-10 19:15:00,64.7,51.4,29.96,West,273,1.0,2.0,62,0.00,,,0.00,Wunderground v.1.15,2013-08-10 23:15:00,
2013-08-10 19:20:00,64.3,51.4,29.96,West,273,0.0,0.0,63,0.00,,,0.00,Wunderground v.1.15,2013-08-10 23:20:00,
2013-08-10 19:30:00,62.4,51.3,29.96,WSW,240,1.0,1.0,67,0.00,,,0.00,Wunderground v.1.15,2013-08-10 23:30:00,
2013-08-10 19:35:00,61.5,52.4,29.96,WSW,240,1.0,1.0,72,0.00,,,0.00,Wunderground v.1.15,2013-08-10 23:35:00,
2013-08-10 19:40:00,60.6,53.0,29.97,WSW,240,0.0,2.0,76,0.00,,,0.00,Wunderground v.1.15,2013-08-10 23:40:00,
2013-08-10 19:45:00,59.7,52.1,29.97,WSW,240,0.0,2.0,76,0.00,,,0.00,Wunderground v.1.15,2013-08-10 23:45:00,
2013-08-10 19:50:00,58.9,52.7,29.97,WSW,240,0.0,1.0,80,0.00,,,0.00,Wunderground v.1.15,2013-08-10 23:50:00,
2013-08-10 20:00:00,57.3,52.2,29.97,WSW,240,0.0,0.0,83,0.00,,,0.00,Wunderground v.1.15,2013-08-11 00:00:00,
2013-08-10 20:10:00,55.9,51.5,29.97,WSW,240,0.0,0.0,85,0.00,,,0.00,Wunderground v.1.15,2013-08-11 00:10:00,
2013-08-10 20:15:00,55.4,51.3,29.98,WSW,240,0.0,1.0,86,0.00,,,0.00,Wunderground v.1.15,2013-08-11 00:15:00,
2013-08-10 20:20:00,54.9,51.1,29.98,WSW,240,1.0,1.0,87,0.00,,,0.00,Wunderground v.1.15,2013-08-11 00:20:00,
2013-08-10 20:25:00,54.6,50.8,29.98,WSW,240,0.0,1.0,87,0.00,,,0.00,Wunderground v.1.15,2013-08-11 00:25:00,
2013-08-10 20:30:00,54.2,50.7,29.98,WSW,240,0.0,0.0,88,0.00,,,0.00,Wunderground v.1.15,2013-08-11 00:30:00,
2013-08-10 20:35:00,53.9,50.7,29.98,WSW,240,0.0,0.0,89,0.00,,,0.00,Wunderground v.1.15,2013-08-11 00:35:00,
2013-08-10 20:40:00,53.5,50.3,29.98,WSW,240,0.0,0.0,89,0.00,,,0.00,Wunderground v.1.15,2013-08-11 00:40:00,
2013-08-10 20:45:00,53.3,50.1,29.99,WSW,240,0.0,0.0,89,0.00,,,0.00,Wunderground v.1.15,2013-08-11 00:45:00,
2013-08-10 20:50:00,53.0,49.8,29.99,WSW,240,0.0,0.0,89,0.00,,,0.00,Wunderground v.1.15,2013-08-11 00:50:00,
2013-08-10 20:55:00,52.6,49.8,29.99,WSW,240,0.0,0.0,90,0.00,,,0.00,Wunderground v.1.15,2013-08-11 00:55:00,
2013-08-10 21:00:00,52.2,49.7,30.00,WSW,240,0.0,0.0,91,0.00,,,0.00,Wunderground v.1.15,2013-08-11 01:00:00,
2013-08-10 21:10:00,51.5,49.0,30.00,WSW,240,0.0,0.0,91,0.00,,,0.00,Wunderground v.1.15,2013-08-11 01:10:00,
2013-08-10 21:15:00,51.2,48.7,30.00,WSW,240,0.0,0.0,91,0.00,,,0.00,Wunderground v.1.15,2013-08-11 01:15:00,
2013-08-10 21:20:00,50.9,48.7,30.00,WSW,240,0.0,0.0,92,0.00,,,0.00,Wunderground v.1.15,2013-08-11 01:20:00,
2013-08-10 21:25:00,50.7,48.5,30.00,WSW,240,0.0,0.0,92,0.00,,,0.00,Wunderground v.1.15,2013-08-11 01:25:00,
2013-08-10 21:30:00,50.5,48.3,30.00,WSW,240,0.0,0.0,92,0.00,,,0.00,Wunderground v.1.15,2013-08-11 01:30:00,
2013-08-10 21:35:00,50.4,48.5,30.00,WSW,240,0.0,0.0,93,0.00,,,0.00,Wunderground v.1.15,2013-08-11 01:35:00,
2013-08-10 21:40:00,50.3,48.4,30.00,WSW,240,0.0,1.0,93,0.00,,,0.00,Wunderground v.1.15,2013-08-11 01:40:00,
2013-08-10 21:45:00,50.0,48.1,30.00,WSW,240,0.0,1.0,93,0.00,,,0.00,Wunderground v.1.15,2013-08-11 01:45:00,
2013-08-10 21:50:00,49.8,47.9,30.00,WSW,240,0.0,0.0,93,0.00,,,0.00,Wunderground v.1.15,2013-08-11 01:50:00,
2013-08-10 21:55:00,49.6,47.7,30.01,WSW,240,0.0,0.0,93,0.00,,,0.00,Wunderground v.1.15,2013-08-11 01:55:00,
2013-08-10 22:00:00,49.5,47.8,30.00,WSW,240,0.0,0.0,94,0.00,,,0.00,Wunderground v.1.15,2013-08-11 02:00:00,
2013-08-10 22:05:00,49.3,47.6,30.00,WSW,240,0.0,0.0,94,0.00,,,0.00,Wunderground v.1.15,2013-08-11 02:05:00,
2013-08-10 22:10:00,49.0,47.3,30.00,WSW,240,0.0,0.0,94,0.00,,,0.00,Wunderground v.1.15,2013-08-11 02:10:00,
2013-08-10 22:15:00,48.8,47.2,30.00,WSW,240,0.0,0.0,94,0.00,,,0.00,Wunderground v.1.15,2013-08-11 02:15:00,
2013-08-10 22:20:00,48.6,47.0,30.00,WSW,240,0.0,0.0,94,0.00,,,0.00,Wunderground v.1.15,2013-08-11 02:20:00,
2013-08-10 22:25:00,48.4,46.8,30.01,WSW,240,0.0,0.0,94,0.00,,,0.00,Wunderground v.1.15,2013-08-11 02:25:00,
2013-08-10 22:30:00,48.3,46.7,30.01,WSW,240,0.0,0.0,94,0.00,,,0.00,Wunderground v.1.15,2013-08-11 02:30:00,
2013-08-10 22:35:00,48.3,46.9,30.01,WSW,240,0.0,0.0,95,0.00,,,0.00,Wunderground v.1.15,2013-08-11 02:35:00,
2013-08-10 22:40:00,48.1,46.7,30.01,WSW,240,0.0,0.0,95,0.00,,,0.00,Wunderground v.1.15,2013-08-11 02:40:00,
2013-08-10 22:45:00,47.9,46.5,30.01,WSW,240,0.0,0.0,95,0.00,,,0.00,Wunderground v.1.15,2013-08-11 02:45:00,
2013-08-10 22:55:00,47.8,46.4,30.01,WSW,240,0.0,0.0,95,0.00,,,0.00,Wunderground v.1.15,2013-08-11 02:55:00,
2013-08-10 23:00:00,47.7,46.3,30.01,WSW,240,0.0,0.0,95,0.00,,,0.00,Wunderground v.1.15,2013-08-11 03:00:00,
2013-08-10 23:05:00,47.7,46.3,30.01,WSW,240,0.0,0.0,95,0.00,,,0.00,Wunderground v.1.15,2013-08-11 03:05:00,
2013-08-10 23:10:00,47.6,46.2,30.01,WSW,240,0.0,1.0,95,0.00,,,0.00,Wunderground v.1.15,2013-08-11 03:10:00,
2013-08-10 23:15:00,47.4,46.0,30.01,WSW,240,0.0,1.0,95,0.00,,,0.00,Wunderground v.1.15,2013-08-11 03:15:00,
2013-08-10 23:20:00,47.1,45.7,30.01,WSW,240,0.0,0.0,95,0.00,,,0.00,Wunderground v.1.15,2013-08-11 03:20:00,
2013-08-10 23:25:00,46.9,45.5,30.01,WSW,240,0.0,0.0,95,0.00,,,0.00,Wunderground v.1.15,2013-08-11 03:25:00,
2013-08-10 23:35:00,46.6,45.2,30.01,WSW,240,0.0,0.0,95,0.00,,,0.00,Wunderground v.1.15,2013-08-11 03:35:00,
2013-08-10 23:40:00,46.6,45.5,30.01,WSW,240,0.0,0.0,96,0.00,,,0.00,Wunderground v.1.15,2013-08-11 03:40:00,
2013-08-10 23:45:00,46.6,45.5,30.01,WSW,240,0.0,0.0,96,0.00,,,0.00,Wunderground v.1.15,2013-08-11 03:45:00,
2013-08-10 23:50:00,46.4,45.0,30.01,WSW,240,0.0,0.0,95,0.00,,,0.00,Wunderground v.1.15,2013-08-11 03:50:00,
2013-08-10 23:55:00,46.3,44.9,30.01,WSW,240,0.0,0.0,95,0.00,,,0.00,Wunderground v.1.15,2013-08-11 03:55:00,